TimeEDT,TemperatureF,Dew PointF,Humidity,Sea Level PressureIn,VisibilityMPH,Wind Direction,Wind SpeedMPH,Gust SpeedMPH,PrecipitationIn,Events,Conditions,WindDirDegrees,DateUTC
12:54 AM,39.0,37.9,96,30.17,10.0,South,6.9,-,N/A,,Scattered Clouds,180,2013-03-12 04:54:00
1:25 AM,39.2,37.4,93,30.17,10.0,South,6.9,-,N/A,,Mostly Cloudy,170,2013-03-12 05:25:00
1:54 AM,39.9,37.9,93,30.16,10.0,SSE,9.2,-,N/A,,Scattered Clouds,160,2013-03-12 05:54:00
2:36 AM,39.2,37.4,93,30.14,10.0,South,5.8,-,N/A,,Scattered Clouds,170,2013-03-12 06:36:00
2:52 AM,39.2,39.2,100,30.13,10.0,South,6.9,-,N/A,,Mostly Cloudy,170,2013-03-12 06:52:00
2:54 AM,39.9,39.0,97,30.13,10.0,South,6.9,-,N/A,,Mostly Cloudy,170,2013-03-12 06:54:00
3:54 AM,41.0,39.0,93,30.09,10.0,SSE,8.1,-,N/A,,Mostly Cloudy,150,2013-03-12 07:54:00
4:01 AM,41.0,39.2,93,30.09,10.0,SSE,8.1,-,N/A,,Clear,150,2013-03-12 08:01:00
4:19 AM,41.0,39.2,93,30.09,10.0,SSE,8.1,-,N/A,,Partly Cloudy,160,2013-03-12 08:19:00
4:42 AM,42.8,41.0,93,30.09,10.0,South,5.8,-,N/A,,Mostly Cloudy,170,2013-03-12 08:42:00
4:54 AM,42.1,41.0,96,30.08,10.0,SSE,4.6,-,N/A,,Overcast,160,2013-03-12 08:54:00
5:54 AM,42.1,41.0,96,30.08,10.0,SE,5.8,-,N/A,,Overcast,140,2013-03-12 09:54:00
6:54 AM,43.0,42.1,97,30.08,9.0,SSE,5.8,-,N/A,,Overcast,160,2013-03-12 10:54:00
7:20 AM,42.8,41.0,93,30.07,8.0,SSE,6.9,-,N/A,,Overcast,150,2013-03-12 11:20:00
7:54 AM,43.0,43.0,100,30.06,8.0,SSE,6.9,-,N/A,,Overcast,160,2013-03-12 11:54:00
8:28 AM,44.6,44.6,100,30.06,8.0,SSE,9.2,-,N/A,,Overcast,160,2013-03-12 12:28:00
8:54 AM,45.0,44.1,97,30.06,9.0,SSE,8.1,-,N/A,,Overcast,160,2013-03-12 12:54:00
9:06 AM,44.6,44.6,100,30.06,9.0,SSE,6.9,-,N/A,,Overcast,160,2013-03-12 13:06:00
9:54 AM,48.0,46.0,93,30.06,10.0,South,12.7,-,N/A,,Overcast,180,2013-03-12 13:54:00
10:54 AM,46.9,46.0,97,30.04,8.0,South,9.2,-,N/A,,Overcast,170,2013-03-12 14:54:00
11:33 AM,46.4,46.4,100,30.03,9.0,South,9.2,-,N/A,,Overcast,170,2013-03-12 15:33:00
11:54 AM,48.0,46.0,93,30.01,9.0,South,10.4,-,N/A,,Overcast,170,2013-03-12 15:54:00
12:19 PM,48.2,46.4,93,30.00,10.0,SSE,9.2,-,N/A,,Overcast,160,2013-03-12 16:19:00
12:54 PM,50.0,46.9,89,29.99,10.0,SSE,11.5,-,N/A,,Overcast,160,2013-03-12 16:54:00
1:01 PM,50.0,46.4,87,29.98,10.0,SSE,11.5,-,N/A,,Overcast,160,2013-03-12 17:01:00
1:54 PM,51.1,46.9,86,29.95,10.0,South,11.5,-,N/A,,Overcast,170,2013-03-12 17:54:00
2:54 PM,53.1,48.0,83,29.93,10.0,South,13.8,-,N/A,,Overcast,180,2013-03-12 18:54:00
3:54 PM,52.0,48.0,86,29.89,10.0,South,16.1,-,N/A,,Overcast,170,2013-03-12 19:54:00
4:46 PM,51.8,46.4,82,29.87,7.0,SSE,17.3,-,0.00,Rain,Light Rain,160,2013-03-12 20:46:00
4:54 PM,50.0,46.9,89,29.87,6.0,SSE,16.1,-,0.00,Rain,Light Rain,160,2013-03-12 20:54:00
5:54 PM,50.0,48.0,93,29.84,7.0,SSE,18.4,-,0.01,Rain,Light Rain,160,2013-03-12 21:54:00
6:13 PM,50.0,48.2,94,29.82,7.0,SSE,18.4,-,0.00,Rain,Light Rain,160,2013-03-12 22:13:00
6:54 PM,50.0,48.0,93,29.80,6.0,SSE,17.3,-,0.03,Rain,Rain,160,2013-03-12 22:54:00
7:07 PM,50.0,48.2,94,29.80,5.0,SSE,15.0,-,0.01,Rain,Rain,160,2013-03-12 23:07:00
7:54 PM,52.0,50.0,93,29.78,4.0,South,20.7,-,0.11,Rain,Rain,170,2013-03-12 23:54:00
8:26 PM,51.8,50.0,94,29.75,4.0,SSE,20.7,33.4,0.09,Rain,Light Rain,160,2013-03-13 00:26:00
8:47 PM,50.0,48.2,94,29.74,4.0,South,20.7,-,0.10,Rain,Light Rain,170,2013-03-13 00:47:00
8:54 PM,51.1,50.0,96,29.75,4.0,South,20.7,-,0.10,Rain,Light Rain,170,2013-03-13 00:54:00
9:14 PM,51.8,51.8,100,29.75,4.0,South,16.1,-,0.02,Rain,Light Rain,190,2013-03-13 01:14:00
9:36 PM,51.8,51.8,100,29.75,5.0,South,12.7,-,0.04,Rain,Light Rain,190,2013-03-13 01:36:00
9:54 PM,52.0,51.1,97,29.75,9.0,South,13.8,-,0.04,Rain,Light Rain,190,2013-03-13 01:54:00
10:54 PM,51.1,50.0,96,29.75,10.0,SSW,16.1,-,0.00,,Light Drizzle,200,2013-03-13 02:54:00
11:16 PM,51.8,50.0,94,29.75,10.0,SSW,11.5,20.7,0.00,,Light Drizzle,210,2013-03-13 03:16:00
11:54 PM,50.0,50.0,100,29.74,10.0,SSW,9.2,-,0.00,,Light Drizzle,210,2013-03-13 03:54:00